Regional Weather Roundup
Issued by NWS State College, PA

Home | Current Version | Previous Version | Graphics & Text | Print | Product List | Glossary Off
Versions: 1 2 3 4 5 6 7 8 9 10 11 12 13 14 15 16 17 18 19 20 21 22 23 24 25 26 27 28 29 30 31 32 33 34 35 36 37 38 39 40 41 42 43 44 45 46 47 48 49 50

000
ASUS41 KCTP 251310
RWRCTP

REGIONAL WEATHER ROUNDUP
NATIONAL WEATHER SERVICE STATE COLLEGE PA
900 AM EDT THU AUG 25 2016

Note: "fair" indicates few or no clouds below 12,000 feet with no
significant weather and/or obstructions to visibility.

* = STATION THAT DOES NOT REPORT PRECIPITATION /E.G. RAIN...SNOW...ETC/
    THUNDER OR FOG.

PAZ002>004-007>009-013>016-020>023-029>032-251400-
WESTERN PENNSYLVANIA

CITY           SKY/WX    TMP DP  RH WIND       PRES   REMARKS
ERIE           CLOUDY    77  74  90 W7        30.00R
MEADVILLE      CLOUDY    72  70  93 W7        30.05S
FRANKLIN*      CLOUDY    72  68  88 W7        30.08R
NEW CASTLE     CLOUDY    74  72  93 SW3       30.08R
BEAVER COUNTY  PTSUNNY   75  70  83 SW8       30.08R
BUTLER*        NOT AVBL
PITTSBURGH INT CLOUDY    74  70  87 SW9       30.09R
PITTSBURGH     CLOUDY    73  70  90 SW8       30.10R
INDIANA*       CLOUDY    73  72  94 W8G16     30.12S
LATROBE        PTSUNNY   72  72 100 SW12      30.11R
WASHINGTON CO* CLOUDY    73  70  88 SW5       30.12R
$$

PAZ004>006-010>012-017>019-024>028-033>037-041-042-045-046-049>053-251400-
CENTRAL PENNSYLVANIA

CITY           SKY/WX    TMP DP  RH WIND       PRES   REMARKS
BRADFORD       LGT RAIN  69  69 100 SW5       30.06S FOG
DUBOIS         CLOUDY    71  68  90 SW10      30.07R FOG
CLEARFIELD     CLOUDY    69  67  93 SW6       30.08S
JOHNSTOWN      CLOUDY    70  69  97 SW9       30.13S
ALTOONA        CLOUDY    72  68  87 SW8       30.11S
STATE COLLEGE  PTSUNNY   70  66  88 S5        30.08S
WILLIAMSPORT   CLOUDY    73  64  73 E3        30.04F
SELINSGROVE    CLOUDY    74  67  78 S6        30.07F
FT INDIANTOWN  MOSUNNY   70  63  78 VRB2      30.10F
CAPITAL CITY   CLOUDY    74  63  68 S5        30.09S
HARRISBURG     CLOUDY    74  66  76 SE3       30.09S
YORK           PTSUNNY   73  65  75 S6        30.10S
$$

PAZ038>040-043-044-047-048-054-055-060>062-067>071-251400-
EASTERN PENNSYLVANIA

CITY           SKY/WX    TMP DP  RH WIND       PRES   REMARKS
SCRANTON       CLOUDY    72  64  76 S3        30.09S
MOUNT POCONO   CLOUDY    66  61  84 SW8       30.15S
ALLENTOWN      MOSUNNY   73  65  75 S8        30.11
QUAKERTOWN*    MOSUNNY   72  66  83 CALM      30.13S
READING        MOSUNNY   75  65  70 S6        30.09F
LANCASTER      MOSUNNY   73  67  81 S5        30.10F
COATESVILLE    SUNNY     70  68  94 VRB3      30.14S
POTTSTOWN      CLOUDY    72  66  81 VRB5      30.13F
BLUE BELL      MOSUNNY   72  64  78 S7        30.12S
DOYLESTOWN     MOSUNNY   74  66  76 S6        30.12F
WILLOW GROVE   NOT AVBL
NORTH PHILA    MOSUNNY   76  64  66 VRB5      30.13F
PHILADELPHIA   CLOUDY    75  65  70 S10       30.12F
$$




USA.gov is the U.S. government's official web portal to all federal, state and local government web resources and services.